Powrót do katalogu

CZ-4 DEB

AktywnySSO
NORAD 26351·DEBRIS·🇨🇳 China

Wystrzelony Oct 14, 1999 z Taiyuan Satellite Launch Center

Loading…

Następne Przeloty (najbliższe 24 godziny)

TLE

ŚwieżeSource: Space-Track

Epoka: Sep 14, 2026, 18:58 UTC

1 26351U 99057JL  26257.79054808  .00000694  00000-0  17446-3 0  9994
2 26351  98.6133 286.9585 0056515 113.0955 247.6211 14.53565249397510

Śledź CZ-4 DEB w czasie rzeczywistym z AllMySat

Download on the App Store